(308837) = 2006 RW48

Discovered at Kitt Peak on 2006-09-14 by Spacewatch.

Orbit

Orbit type: Main Belt

Note: WebGL enabled browser required.

epoch2023-02-25.0
epoch JD2460000.5
perihelion date2022-10-04.89027
perihelion JD2459857.39027
argument of perihelion (°)73.27053
ascending node (°)7.60956
inclination (°)10.30805
eccentricity0.2480779
perihelion distance (AU)2.2449056
Tisserand w.r.t. Jupiter3.2
ΔV w.r.t. Earth (km/sec)10.0
semimajor axis (AU)2.9855560
mean anomaly (°)27.34231
mean daily motion (°/day)0.19105830
aphelion distance (AU)3.726
period (years)5.16
P-vector [x]0.16054815
P-vector [y]0.82366162
P-vector [z]0.54388034
Q-vector [x]-0.98674354
Q-vector [y]0.12070812
Q-vector [z]0.10847461
absolute magnitude16.99
phase slope0.15
uncertainty0
referenceMPO 745323
observations used201
oppositions11
arc length (days)7821
first opposition used2001
last opposition used2023
residual rms (arc-secs)0.78
perturbers coarse indicatorM-v
perturbers precise indicator003Ek
first observation date used2001-11-12.0
last observation date used2023-04-12.0
computer nameMPCLINUX
JD of orbit computation2455941.241293
perihelion JD uncertainty (days)5.1081E-04
argument of perihelion uncertainty (°)1.0821E-04
ascending node uncertainty (°)3.0235E-05
inclination uncertainty (°)2.9460E-05
eccentricity uncertainty 1.6279E-07
perihelion distance uncertainty (AU)5.3644E-07
Minimum Orbit Intersection Distances (in AU)
for orbit epoch: 2460000.5, reference: E2023-G75
Mercury1.93921
Venus1.53953
Earth1.28477
Mars0.73583
Jupiter1.73109
Saturn6.45496
Uranus15.2893
Neptune26.793

Observations

210 total observations over interval: 2001 11 12.22061 – 2023 04 12.189256
These data are available for download (format description).

Date (UT) J2000 RA J2000 Dec Magn Location Ref
2001 11 12.22061 02 00 00.52 +22 42 14.3   704 – Lincoln Laboratory ETS, New Mexico MPS 407652
2001 11 12.23498 01 59 59.70 +22 42 12.9   704 – Lincoln Laboratory ETS, New Mexico MPS 407652
2001 11 12.24935 01 59 58.87 +22 42 12.0   704 – Lincoln Laboratory ETS, New Mexico MPS 407653
2001 11 12.27808 01 59 57.24 +22 42 11.2   704 – Lincoln Laboratory ETS, New Mexico MPS 407653
2003 03 24.28465 12 14 49.27 -00 06 20.9 20.4 V 691 – Steward Observatory, Kitt Peak-Spacewatch MPS 218724
2003 03 24.31205 12 14 47.69 -00 06 17.1 21.0 V 691 – Steward Observatory, Kitt Peak-Spacewatch MPS 218724
2003 03 24.33970 12 14 46.20 -00 06 12.6 20.8 V 691 – Steward Observatory, Kitt Peak-Spacewatch MPS 218724
2003 03 31.34617 12 08 28.70 +00 10 54.7 21.9 V 291 – LPL/Spacewatch II MPS 218724
2003 03 31.36946 12 08 27.45 +00 10 58.2 22.4 V 291 – LPL/Spacewatch II MPS 218724
2003 03 31.39255 12 08 26.21 +00 11 02.3 22.4 V 291 – LPL/Spacewatch II MPS 218724
2003 04 07.31222 12 02 36.52 +00 25 43.0 21.8 V 691 – Steward Observatory, Kitt Peak-Spacewatch MPS 218724
2003 04 07.33902 12 02 35.22 +00 25 46.9 22.1 V 691 – Steward Observatory, Kitt Peak-Spacewatch MPS 218724
2003 04 07.36665 12 02 33.86 +00 25 49.3 22.5 V 691 – Steward Observatory, Kitt Peak-Spacewatch MPS 218724
2006 09 14.42776 01 29 19.45 +10 27 53.5   691 – Steward Observatory, Kitt Peak-Spacewatch MPS 179535
2006 09 14.44508 01 29 18.86 +10 27 55.3   691 – Steward Observatory, Kitt Peak-Spacewatch MPS 179535
2006 09 14.46241 01 29 18.29 +10 27 56.8   691 – Steward Observatory, Kitt Peak-Spacewatch MPS 179535
2006 09 18.36286 01 27 05.17 +10 34 12.0 20.6 V 691 – Steward Observatory, Kitt Peak-Spacewatch MPS 179535
2006 09 18.38019 01 27 04.49 +10 34 13.6 20.8 V 691 – Steward Observatory, Kitt Peak-Spacewatch MPS 179535
2006 09 18.39752 01 27 03.80 +10 34 14.9 21.1 V 691 – Steward Observatory, Kitt Peak-Spacewatch MPS 179535
2006 09 26.37647 01 21 24.20 +10 41 58.6 20.6 V 691 – Steward Observatory, Kitt Peak-Spacewatch MPS 181232
2006 09 26.39392 01 21 23.34 +10 41 59.2 20.6 V 691 – Steward Observatory, Kitt Peak-Spacewatch MPS 181232
2006 09 26.41137 01 21 22.47 +10 41 59.7 20.7 V 691 – Steward Observatory, Kitt Peak-Spacewatch MPS 181232
2006 09 30.38136 01 18 04.94 +10 43 27.7 20.5 V 691 – Steward Observatory, Kitt Peak-Spacewatch MPS 182839
2006 09 30.39879 01 18 03.99 +10 43 27.9 20.3 V 691 – Steward Observatory, Kitt Peak-Spacewatch MPS 182839
2006 09 30.41616 01 18 03.06 +10 43 27.9 20.3 V 691 – Steward Observatory, Kitt Peak-Spacewatch MPS 182839
2006 10 17.22216 01 02 12.08 +10 36 12.4 19.5 V 703 – Catalina Sky Survey MPS 183024
2006 10 17.22996 01 02 11.54 +10 36 12.5 20.0 V 703 – Catalina Sky Survey MPS 183024
2006 10 17.23776 01 02 11.07 +10 36 12.9 19.7 V 703 – Catalina Sky Survey MPS 183024
2006 10 17.24553 01 02 10.64 +10 36 13.8 20.7 V 703 – Catalina Sky Survey MPS 183024
2006 10 21.27322 00 58 18.71 +10 32 29.5 20.5 R 644 – Palomar Mountain/NEAT MPS 185511
2006 10 21.29347 00 58 17.50 +10 32 28.3 20.6 R 644 – Palomar Mountain/NEAT MPS 185511
2006 10 21.31495 00 58 16.22 +10 32 26.3 20.8 R 644 – Palomar Mountain/NEAT MPS 185511
2006 11 18.18766 00 39 03.38 +10 21 45.7 20.6 V G96 – Mt. Lemmon Survey MPS 188741
2006 11 18.19264 00 39 03.24 +10 21 45.7 20.6 V G96 – Mt. Lemmon Survey MPS 188741
2006 11 18.19762 00 39 03.16 +10 21 46.0 20.4 V G96 – Mt. Lemmon Survey MPS 188741
2006 11 18.20263 00 39 03.02 +10 21 46.1 20.8 V G96 – Mt. Lemmon Survey MPS 188741
2008 02 27.23723 11 47 47.83 +07 15 53.3 20.7 V 691 – Steward Observatory, Kitt Peak-Spacewatch MPS 286933
2008 02 27.25483 11 47 46.94 +07 15 56.2 20.8 V 691 – Steward Observatory, Kitt Peak-Spacewatch MPS 286933
2008 02 27.27242 11 47 45.97 +07 15 59.2 21.3 V 691 – Steward Observatory, Kitt Peak-Spacewatch MPS 286933
2011 09 24.37256 00 17 07.44 +00 03 51.1 20.1 V G96 – Mt. Lemmon Survey MPS 392662
2011 09 24.37859 00 17 07.08 +00 03 50.4 20.1 V G96 – Mt. Lemmon Survey MPS 392662
2011 09 24.38468 00 17 06.72 +00 03 49.7 20.2 V G96 – Mt. Lemmon Survey MPS 392662
2011 09 24.39082 00 17 06.36 +00 03 48.9 20.2 V G96 – Mt. Lemmon Survey MPS 392662
2011 09 26.42203 00 15 12.870 +00 00 27.85 20.5 w F51 – Pan-STARRS 1, Haleakala MPS 392662
2011 09 26.43604 00 15 12.050 +00 00 26.45 20.4 w F51 – Pan-STARRS 1, Haleakala MPS 392662
2011 09 26.45095 00 15 11.195 +00 00 24.95 20.5 w F51 – Pan-STARRS 1, Haleakala MPS 392662
2011 09 26.47079 00 15 10.034 +00 00 22.96 20.5 w F51 – Pan-STARRS 1, Haleakala MPS 392662
2011 10 03.29330 00 08 45.02 -00 10 30.5 20.2 V G96 – Mt. Lemmon Survey MPS 394228
2011 10 03.29858 00 08 44.70 -00 10 30.9 20.2 V G96 – Mt. Lemmon Survey MPS 394228
2011 10 03.30371 00 08 44.41 -00 10 31.5 20.2 V G96 – Mt. Lemmon Survey MPS 394228
2011 10 03.30896 00 08 44.08 -00 10 32.1 20.0 V G96 – Mt. Lemmon Survey MPS 394228
2011 10 19.26227 23 55 02.06 -00 26 05.6 20.2 V G96 – Mt. Lemmon Survey MPS 395041
2011 10 19.26751 23 55 01.81 -00 26 05.1 19.9 V G96 – Mt. Lemmon Survey MPS 395041
2011 10 19.27274 23 55 01.56 -00 26 05.4 20.2 V G96 – Mt. Lemmon Survey MPS 395041
2011 10 19.27800 23 55 01.34 -00 26 05.4 20.0 V G96 – Mt. Lemmon Survey MPS 395041
2011 10 24.18156 23 51 37.94 -00 26 12.1 20.0 V G96 – Mt. Lemmon Survey MPS 396328
2011 10 24.18671 23 51 37.76 -00 26 13.6 19.9 V G96 – Mt. Lemmon Survey MPS 396328
2011 10 24.19191 23 51 37.54 -00 26 12.0 20.2 V G96 – Mt. Lemmon Survey MPS 396328
2011 10 24.19716 23 51 37.33 -00 26 11.7 20.9 V G96 – Mt. Lemmon Survey MPS 396328
2011 10 26.14167 23 50 25.58 -00 25 27.8 20.9 V G96 – Mt. Lemmon Survey MPS 396328
2011 10 26.14947 23 50 25.26 -00 25 27.5 20.7 V G96 – Mt. Lemmon Survey MPS 396328
2011 10 26.15296 23 50 25.15 -00 25 27.3 21.0 V G96 – Mt. Lemmon Survey MPS 396328
2011 10 26.15645 23 50 25.00 -00 25 27.1 21.0 V G96 – Mt. Lemmon Survey MPS 396328
2011 11 16.15323 23 43 48.14 +00 14 20.2 20.9 V G96 – Mt. Lemmon Survey MPS 400020
2011 11 16.16017 23 43 48.07 +00 14 21.9 21.8 V G96 – Mt. Lemmon Survey MPS 400020
2011 11 16.16711 23 43 48.07 +00 14 23.4 21.4 V G96 – Mt. Lemmon Survey MPS 400020
2011 11 16.17399 23 43 48.07 +00 14 24.9 21.4 V G96 – Mt. Lemmon Survey MPS 400020
2013 02 14.39867 11 00 19.191 +16 19 35.97 20.5 w F51 – Pan-STARRS 1, Haleakala MPS 456237
2013 02 14.41323 11 00 18.375 +16 19 38.35 20.4 w F51 – Pan-STARRS 1, Haleakala MPS 456237
2013 02 14.42785 11 00 17.552 +16 19 40.76 20.5 w F51 – Pan-STARRS 1, Haleakala MPS 456237
2013 02 14.44261 11 00 16.721 +16 19 43.23 20.5 w F51 – Pan-STARRS 1, Haleakala MPS 456237
2014 04 28.33223 15 13 25.76 -27 35 34.9 22.3 V W84 – Cerro Tololo-DECam MPS 789582
2014 04 28.33903 15 13 25.41 -27 35 34.7   W84 – Cerro Tololo-DECam MPS 789582
2014 04 28.34236 15 13 25.23 -27 35 34.3   W84 – Cerro Tololo-DECam MPS 789582
2014 04 28.34563 15 13 25.05 -27 35 34.1   W84 – Cerro Tololo-DECam MPS 789582
2014 04 29.32224 15 12 34.18 -27 34 42.0 22.3 V W84 – Cerro Tololo-DECam MPS 789582
2014 04 29.32538 15 12 34.01 -27 34 41.9   W84 – Cerro Tololo-DECam MPS 789582
2014 04 29.32861 15 12 33.83 -27 34 41.6   W84 – Cerro Tololo-DECam MPS 789582
2014 04 29.33184 15 12 33.67 -27 34 41.4   W84 – Cerro Tololo-DECam MPS 789582
2014 04 29.33507 15 12 33.50 -27 34 41.2   W84 – Cerro Tololo-DECam MPS 789582
2014 05 02.34088 15 09 54.46 -27 31 22.6 22.3 V W84 – Cerro Tololo-DECam MPS 789582
2014 05 02.34405 15 09 54.29 -27 31 22.3   W84 – Cerro Tololo-DECam MPS 789582
2014 05 02.34723 15 09 54.11 -27 31 22.1   W84 – Cerro Tololo-DECam MPS 789582
2014 05 02.35042 15 09 53.94 -27 31 21.8   W84 – Cerro Tololo-DECam MPS 789582
2014 05 02.35360 15 09 53.77 -27 31 21.5   W84 – Cerro Tololo-DECam MPS 789582
2016 08 02.53387 23 53 18.410 -07 54 59.36 21.5 w F51 – Pan-STARRS 1, Haleakala MPS 723220
2016 08 02.54492 23 53 18.246 -07 54 59.74 21.5 w F51 – Pan-STARRS 1, Haleakala MPS 723220
2016 08 02.55598 23 53 18.072 -07 55 00.48 21.5 w F51 – Pan-STARRS 1, Haleakala MPS 723220
2016 08 08.58197 23 51 31.084 -08 01 14.52 21.5 w F51 – Pan-STARRS 1, Haleakala MPS 724819
2016 08 08.59261 23 51 30.828 -08 01 15.29 21.6 w F51 – Pan-STARRS 1, Haleakala MPS 724819
2016 08 08.60315 23 51 30.574 -08 01 15.98 21.3 w F51 – Pan-STARRS 1, Haleakala MPS 724819
